Weather Service Report


206 
ASUS43 KTOP 300708
RWRKS 

WEATHER ROUNDUP FOR KANSAS
NATIONAL WEATHER SERVICE GOODLAND KS
200 AM CDT TUE SEP 30 2014

NOTE:  "FAIR" INDICATES FEW OR NO CLOUDS BELOW 12,000 FEET WITH NO
SIGNIFICANT WEATHER AND/OR OBSTRUCTIONS TO VISIBILITY.

KSZ001>006-013>018-027>032-041>047-300800-
NORTHWEST KANSAS
  
CITY           SKY/WX    TMP DP  RH WIND       PRES   REMARKS
GOODLAND       PTCLDY    56  54  93 S16G22    29.86R                  
HAYS           CLOUDY    66  54  63 S12       29.86S                  
HILL CITY      CLOUDY    62  59  90 CALM      29.84R                  
RUSSELL        CLOUDY    68  56  65 SE17      29.85F                  
$$

KSZ061>065-074>080-084>089-300800-
SOUTHWEST KANSAS
  
CITY           SKY/WX    TMP DP  RH WIND       PRES   REMARKS
DODGE CITY     CLOUDY    67  54  63 S10       29.88R                  
ELKHART          N/A     63  58  84 S3          N/A                   
GARDEN CITY    TSTM      63  60  90 S14       29.88F FOG              
GREAT BEND     CLOUDY    66  55  68 S16       29.87F                  
LIBERAL        CLOUDY    66  57  72 SE12      29.90F                  
PRATT          MOCLDY    68  54  60 S16       29.91F                  
$$

KSZ066>073-081>083-090>101-300800-
SOUTHEAST KANSAS
  
CITY           SKY/WX    TMP DP  RH WIND       PRES   REMARKS
CHANUTE        PTCLDY    62  59  90 SE3       29.97R                  
COFFEYVILLE    CLEAR     62  59  90 CALM      29.95S                  
HUTCHINSON     PTCLDY    67  56  67 SE8       29.92F                  
MEDICINE LODGE   N/A     67  56  67 S7        29.91F                  
NEWTON         PTCLDY    64  54  68 SE8       29.95F                  
PARSONS        CLEAR     60  58  92 CALM      29.97R                  
WICHITA INTL   MOCLDY    67  57  70 SE8       29.92F                  
WICHITA JABRA  PTCLDY    64  58  80 SE7       29.93F                  
WICHITA MCCONL PTCLDY    67  59  75 SE10      29.93F                  
WINFIELD       PTCLDY    66  58  75 SE3       29.94F                  
$$

KSZ007>012-019>026-033>040-048>060-102>105-300800-
NORTHEAST KANSAS
  
CITY           SKY/WX    TMP DP  RH WIND       PRES   REMARKS
CONCORDIA      MOCLDY    68  60  75 S14       29.90F                  
EMPORIA        PTCLDY    63  60  90 S7        29.95F                  
LAWRENCE       PTCLDY    59  57  93 CALM      29.96S                  
MANHATTAN      MOCLDY    68  59  73 CALM      29.92F                  
MARYSVILLE     MOCLDY    63  59  88 SE5       29.93F                  
OLATHE IND     MOCLDY    64  59  83 S6        29.97S                  
OLATHE EXE     PTCLDY    66  59  78 S3        29.97S                  
SALINA         MOCLDY    68  59  73 S10       29.90F                  
TOPEKA BILLARD PTCLDY    65  61  87 CALM      29.96S                  
TOPEKA FORBES  MOCLDY    62  58  86 CALM      29.96S                  
$$

Return to Home page


Western Regional Climate Center, wrcc@dri.edu